Date,TemperatureHighF,TemperatureAvgF,TemperatureLowF,DewpointHighF,DewpointAvgF,DewpointLowF,HumidityHigh,HumidityAvg,HumidityLow,PressureMaxIn,PressureMinIn,WindSpeedMaxMPH,WindSpeedAvgMPH,GustSpeedMaxMPH,PrecipitationSumIn
2013-8-1,80.8,71.0,65.6,69.4,65.4,61.1,93,83,62,30.02,29.82,12,2,14,0.10
2013-8-2,82.3,74.2,68.2,69.5,67.1,62.6,96,80,55,29.88,29.74,19,3,21,0.04
2013-8-3,74.8,71.1,69.1,68.7,65.4,61.6,90,83,72,29.87,29.82,19,2,19,0.04
2013-8-4,80.3,71.1,62.7,67.6,61.4,56.4,93,73,55,29.89,29.78,23,3,23,0.03
2013-8-5,75.8,67.8,60.5,59.8,54.8,48.6,90,65,41,30.01,29.88,17,4,18,0.01
2013-8-6,76.3,68.8,60.7,64.4,60.1,56.0,92,75,55,30.11,30.01,17,2,17,0.00
2013-8-7,77.4,69.8,62.5,65.1,61.9,58.3,91,77,58,30.15,30.08,18,3,18,0.00
2013-8-8,82.8,74.5,69.9,72.8,69.6,65.1,93,85,71,30.08,30.01,26,6,26,0.03
2013-8-9,79.7,74.6,72.9,75.2,72.3,70.8,96,93,85,30.02,29.77,32,7,32,0.17
2013-8-10,82.2,75.1,69.0,72.6,66.7,58.6,96,76,57,30.01,29.79,17,3,17,0.00
2013-8-11,80.1,70.6,61.3,64.0,56.5,50.0,84,62,41,30.08,30.00,12,2,13,0.00
2013-8-12,75.0,70.6,67.2,69.4,66.6,63.4,97,88,73,30.01,29.90,10,0,10,0.45
2013-8-13,71.7,68.3,65.3,70.8,67.0,64.4,98,96,89,29.91,29.67,12,1,14,0.47
2013-8-14,73.9,68.2,62.3,68.0,57.3,52.0,97,69,53,29.98,29.67,21,7,22,0.00
2013-8-15,76.7,67.9,59.9,59.7,55.3,51.2,81,65,42,30.10,29.97,20,4,20,0.00
2013-8-16,80.3,71.7,62.5,64.5,59.5,51.8,91,67,40,30.18,30.09,12,2,12,0.00
2013-8-17,83.0,71.2,61.2,62.9,60.3,53.7,96,71,38,30.25,30.17,9,1,9,0.00
2013-8-18,72.2,66.8,61.6,65.4,62.2,57.3,96,85,71,30.25,30.08,12,1,12,0.00
2013-8-19,78.8,69.8,61.4,68.1,63.3,57.1,90,80,63,30.08,29.97,15,1,15,0.01
2013-8-20,84.8,74.7,67.2,67.8,65.6,61.5,91,75,48,30.10,29.99,13,2,13,0.00
2013-8-21,87.7,75.7,65.3,71.2,67.2,62.6,98,77,45,30.13,30.02,12,2,17,0.00
2013-8-22,80.3,73.1,68.8,73.7,70.2,67.2,97,91,79,30.04,29.83,19,2,19,0.33
2013-8-23,79.5,72.2,63.1,69.5,64.4,58.9,97,78,50,30.07,29.82,12,2,15,0.00
2013-8-24,73.3,67.5,60.8,62.4,56.2,52.5,93,68,50,30.32,30.07,15,2,15,0.00
2013-8-25,80.9,68.3,59.1,64.2,58.3,46.6,95,73,31,30.35,30.19,18,2,18,0.00
2013-8-26,80.8,72.8,68.7,68.9,64.9,58.4,96,77,62,30.20,29.88,17,2,17,0.35
2013-8-27,78.9,72.0,68.3,71.8,69.2,67.1,97,91,76,29.89,29.78,16,3,16,0.63
2013-8-28,80.1,71.7,65.7,73.7,69.2,64.8,98,92,77,29.88,29.82,15,1,15,0.00
2013-8-29,74.6,68.6,63.0,68.0,65.2,59.4,98,89,77,30.02,29.87,18,4,18,0.00
2013-8-30,79.6,70.0,59.3,71.6,65.5,57.5,95,86,70,30.00,29.83,14,2,14,0.00
2013-8-31,81.8,75.1,71.1,74.0,71.2,69.3,95,88,75,29.84,29.78,26,6,26,0.00